Home   Weather   Sankt Augustin   Past weeks

Flag for Germany Past Weather in Sankt Augustin, North Rhine-Westphalia, Germany — Yesterday and Last 2 Weeks

Now
43 °F

Light rain. Clear.


Feels Like: 36 °F
Forecast: 46 / 52 °F
Wind: 12 mph from South

Location: Koeln / Bonn

Current Time: Feb 26, 2017 at 6:58:42 am

Latest Report: Feb 26, 2017 at 6:20 am


Visibility: N/A

Pressure: 29.92 "Hg

Humidity: 71%

Dew Point: 34 °F

Location of Sankt AugustinLocation

Past Weather in Sankt Augustin — Graph

°F

Sankt Augustin Temperature Yesterday

Maximum temperature yesterday: 48 °F (at 12:50 pm)
Minimum temperature yesterday: 30 °F (at 4:50 am)
Average temperature yesterday: 40 °F

High & Low Weather Summary for the Past Weeks

 TemperatureHumidityPressure
High61 °F (Feb 15, 2:50 pm)100% (Feb 11, 9:20 am)30.54 "Hg (Feb 11, 9:20 am)
Low30 °F (Feb 13, 2:50 am)39% (Feb 15, 2:20 pm)29.33 "Hg (Feb 23, 3:20 pm)
Average44 °F78%30.14 "Hg
* Reported Feb 11 5:20 am — Feb 26 5:50 am, Sankt Augustin, Weather by CustomWeather, © 2017

Note: Actual official high and low records may vary slightly from our data, if they occured in-between our weather recording intervals... More about our weather records

Advertising

Sankt Augustin Weather History for the Previous 24 Hours

Scroll right to see more
 ConditionsComfort  
Time TempWeatherWind HumidityBarometerVisibility
5:50 am
Sun, Feb 26
43 °FClear.10 mph71%29.92 "Hg10 mi
5:20 am43 °FClear.10 mph71%29.92 "Hg10 mi
4:50 am43 °FClear.10 mph71%29.92 "Hg10 mi
4:20 am43 °FClear.10 mph71%29.95 "Hg10 mi
3:50 am43 °FClear.9 mph71%29.95 "Hg10 mi
3:20 am43 °FClear.10 mph71%29.95 "Hg10 mi
2:50 am43 °FClear.12 mph71%29.95 "Hg10 mi
2:20 am43 °FClear.9 mph71%29.98 "Hg10 mi
1:50 am43 °FClear.10 mph71%29.98 "Hg10 mi
1:20 am43 °FClear.10 mph71%29.98 "Hg10 mi
12:50 am43 °FClear.10 mph71%29.98 "Hg10 mi
12:20 am43 °FPassing clouds.9 mph71%30.01 "HgN/A
11:50 pm
Sat, Feb 25
41 °FClear.9 mph76%30.01 "Hg10 mi
11:20 pm43 °FClear.9 mph71%30.01 "Hg10 mi
10:50 pm43 °FClear.9 mph66%30.01 "Hg10 mi
10:20 pm43 °FClear.9 mph66%30.04 "Hg10 mi
9:50 pm43 °FClear.8 mph66%30.04 "Hg10 mi
9:20 pm43 °FClear.8 mph66%30.04 "Hg10 mi
8:50 pm45 °FClear.9 mph61%30.04 "Hg10 mi
8:20 pm45 °FClear.9 mph57%30.04 "Hg10 mi
7:50 pm45 °FClear.10 mph57%30.04 "Hg10 mi
7:20 pm45 °FClear.10 mph61%30.04 "Hg10 mi
6:50 pm45 °FClear.12 mph61%30.04 "Hg10 mi
6:20 pm45 °FClear.12 mph57%30.04 "Hg10 mi
5:50 pm45 °FSunny.12 mph57%30.07 "Hg10 mi
5:20 pm45 °FPassing clouds.12 mph57%30.07 "HgN/A
4:50 pm46 °FSunny.9 mph53%30.07 "Hg10 mi
4:20 pm46 °FSunny.12 mph53%30.07 "Hg10 mi
3:50 pm46 °FSunny.14 mph50%30.07 "Hg10 mi
3:20 pm48 °FSunny.13 mph46%30.07 "Hg10 mi
2:50 pm48 °FSunny.14 mph50%30.09 "Hg10 mi
2:20 pm48 °FBroken clouds.14 mph50%30.09 "HgN/A
1:50 pm48 °FPartly sunny.14 mph54%30.09 "HgN/A
1:20 pm48 °FPartly sunny.15 mph58%30.12 "HgN/A
12:50 pm48 °FPartly sunny.13 mph58%30.12 "HgN/A
12:20 pm46 °FPartly sunny.10 mph57%30.15 "HgN/A
11:50 am45 °FSunny.13 mph66%30.15 "Hg10 mi
11:20 am43 °FPassing clouds.12 mph66%30.15 "HgN/A
10:50 am43 °FSunny.8 mph66%30.18 "Hg10 mi
10:20 am39 °FSunny.9 mph75%30.18 "Hg10 mi
9:50 am37 °FSunny.9 mph81%30.18 "Hg10 mi
9:20 am36 °FSunny.9 mph87%30.18 "Hg10 mi
8:50 am34 °FPassing clouds.8 mph87%30.18 "HgN/A
8:20 am32 °FPassing clouds.7 mph93%30.18 "HgN/A
7:50 am30 °FFog.3 mph93%30.18 "HgN/A
7:20 am32 °FPassing clouds.2 mph87%30.15 "HgN/A
6:50 am30 °FClear.2 mph93%30.15 "Hg10 mi
6:20 am32 °FClear.2 mph93%30.15 "Hg10 mi
Weather by CustomWeather, © 2017

See weather overviewHow to use our weather pages